Welcome to the New NWS' Forecast!
Most changes are behind the scenes, but click here for differences you might notice.

Regional Weather Roundup (RWR)

Issued by National Weather Service (NWS)

                            
706 
ASUS46 KSEW 160510
RWRWA 

WASHINGTON REGIONAL WEATHER ROUNDUP
NATIONAL WEATHER SERVICE SEATTLE WA
1000 PM PDT SUN JUL 15 2018

NOTE:"FAIR" INDICATES FEW OR NO CLOUDS BELOW 12,000 FEET WITH NO 
SIGNIFICANT WEATHER AND/OR OBSTRUCTIONS TO VISIBILITY.

WAZ507-509-555>559-160600-
SEATTLE, TACOMA, EVERETT, AND VICINITY
  
CITY           SKY/WX    TMP DP  RH WIND       PRES   REMARKS
EVERETT        CLEAR     73  47  39 NW7       29.99R                  
BOEING FIELD   CLEAR     79  46  31 N6        29.95R                  
RENTON         CLEAR     80  52  37 NW6       29.95R                  
SEATAC AIRPORT PTCLDY    77  48  35 N9        29.97R                  
JBLM-MCCHORD   CLEAR     79  54  41 NE5       29.96R                  
PUYALLUP       FAIR      70  57  64 CALM      29.98R                  
BREMERTON      CLEAR     75  46  35 NE8       29.98R                  
JBLM-FT LEWIS  CLEAR     78  52  39 W3        29.96R                  
TACOMA NARROWS CLEAR     78  47  33 N8        29.96R                  
$$
 
WAZ001-503-506-510-514-515-160600-
NORTH INTERIOR
  
CITY           SKY/WX    TMP DP  RH WIND       PRES   REMARKS
BELLINGHAM     CLEAR     65  55  70 CALM      29.96R                  
FRIDAY HARBOR  CLEAR     61  50  67 CALM      29.98R                  
EASTSOUND      CLEAR     66  52  59 CALM      29.96R                  
PORT ANGELES   CLEAR     68  49  50 W5        30.00R                  
EDIZ HOOK      FAIR      54  48  80 NW12      29.98S                  
PORT TOWNSEND  FAIR      64  50  59 CALM      29.98R                  
NAS WHIDBEY    PTCLDY    63  50  62 CALM      30.01S                  
ARLINGTON      CLEAR     69  51  52 NW7       29.98R                  
BURLINGTON     CLEAR     66  50  55 CALM      29.97R                  
$$
 
WAZ020-022-039-040-504-511-512-160600-
SOUTHWEST INTERIOR
  
CITY           SKY/WX    TMP DP  RH WIND       PRES   REMARKS
SHELTON        CLEAR     76  54  46 SW5       29.95R                  
OLYMPIA        CLEAR     77  45  32 N6        29.96R                  
CHEHALIS       FAIR      75  57  53 CALM      29.96R                  
KELSO          CLEAR     74  56  53 N5        29.97R                  
VANCOUVER      CLEAR     82  56  40 VRB6      29.91R                  
SCAPPOOSE, OR  CLEAR     81  51  35 N7        29.91R                  
PORTLAND, OR   PTCLDY    83  56  39 W7        29.91R                  
$$
 
WAZ021-516-517-160600-
WASHINGTON COAST
  
CITY           SKY/WX    TMP DP  RH WIND       PRES   REMARKS
FORKS          CLEAR     63  47  55 NW5       30.00R                  
HOQUIAM        CLEAR     61  57  87 SW9       29.99R                  
ASTORIA, OR    CLEAR     58  55  90 SW6       30.01R                  
$$
 
WAZ019-023-024-040-567>569-160600-
CASCADE MOUNTAINS AND COLUMBIA GORGE
  
CITY           SKY/WX    TMP DP  RH WIND       PRES   REMARKS
STAMPEDE PASS  NOT AVBL                                               
TROUTDALE, OR  CLEAR     85  53  33 VRB6      29.90R                  
HOOD RIVER, OR CLEAR     77  54  44 CALM      29.92R                  
THE DALLES, OR CLEAR     85  53  33 W3        29.87R                  
$$

WAZ026-027-041>044-520-521-160600-
EAST SLOPES
  
CITY           SKY/WX    TMP DP  RH WIND       PRES   REMARKS
OMAK           CLEAR     78  46  32 NW12      29.92R                  
WENATCHEE      CLEAR     80  41  24 E8        29.92R                  
ELLENSBURG     CLEAR     78  49  35 N9        29.97R                  
YAKIMA         PTCLDY    76  51  41 NW7       29.93R                  
SUNNYSIDE ARPT PTCLDY    69  49  48 N6        29.91R                  
YAKIMA TC        N/A     80  35  20 CALM      29.93R                  
$$

WAZ028-034-035-160600-
COLUMBIA BASIN
  
CITY           SKY/WX    TMP DP  RH WIND       PRES   REMARKS
EPHRATA        PTCLDY    74  34  23 NW5       29.92R                  
MOSES LAKE     PTCLDY    79  34  19 W3        29.92S                  
PASCO          CLEAR     78  52  40 CALM      29.88R                  
RICHLAND ARPT  CLEAR     80  51  36 CALM      29.87R                  
HERMISTON, OR  PTCLDY    73  45  36 CALM      29.88R                  
$$

WAZ036>038-160600-
NORTHEAST WASHINGTON
  
CITY           SKY/WX    TMP DP  RH WIND       PRES   REMARKS
SPOKANE GEIGER PTCLDY    82  32  16 CALM      30.01R                  
SPOKANE FELTS  CLEAR     70  42  36 NE5       29.99R                  
FAIRCHILD AFB  CLEAR     75  36  23 CALM      30.01S                  
COEURDALENE,ID CLEAR     71  50  47 E6        30.02R                  
DEER PARK      CLEAR     61  41  47 CALM      30.00S                  
$$

WAZ029>033-160600-
SOUTHEAST WASHINGTON
  
CITY           SKY/WX    TMP DP  RH WIND       PRES   REMARKS
PULLMAN        MOCLDY    66  47  50 CALM      30.03S                  
LEWISTON, ID   MOCLDY    79  36  21 SE6       29.95R                  
WALLA WALLA    PTCLDY    82  40  22 SE9       29.92R                  
PENDLETON, OR  PTCLDY    83  33  16 SE6       29.94R                  
$$